Regional Weather Roundup
Issued by NWS Newport/Morehead, NC

Current Version | Previous Version | Text Only | Print | Product List | Glossary On
Versions: 1 2 3 4 5 6 7 8 9 10 11 12 13 14 15 16 17 18 19 20 21 22 23 24 25 26 27 28 29 30 31 32 33 34 35 36 37 38 39 40 41 42 43 44 45 46 47 48 49 50
000
ASUS42 KMHX 211313
RWRMHX
WEATHER ROUNDUP FOR EASTERN NORTH CAROLINA
NATIONAL WEATHER SERVICE NEWPORT/MOREHEAD CITY NC
900 AM EDT THU SEP 21 2017

NOTE: "FAIR" INDICATES FEW OR NO CLOUDS BELOW 12,000 FEET
WITH NO SIGNIFICANT WEATHER AND/OR OBSTRUCTIONS TO VISIBILITY

NCZ015>017-031-032-045>047-102-103-211400-
NORTH COAST

CITY           SKY/WX    TMP DP  RH WIND       PRES   REMARKS
EDENTON        SUNNY     74  71  88 CALM      30.04R
ELIZABETH CITY SUNNY     75  70  84 NW7       30.03R
KITTY HAWK     SUNNY     73  69  87 CALM      30.01S
MANTEO         SUNNY     75  70  83 NW5       30.03R

$$

NCZ045>047-081-094-103-104-211400-
CENTRAL COAST

CITY           SKY/WX    TMP DP  RH WIND       PRES   REMARKS
FRISCO         SUNNY     79  75  87 NW3       30.02R

$$

NCZ095-097-098-100-101-211400-
SOUTHERN COAST

CITY           SKY/WX    TMP DP  RH WIND       PRES   REMARKS
BEAUFORT       SUNNY     77  70  79 W5        30.03R
CEDAR ISLAND   NOT AVBL
JACKSONVILLE   SUNNY     75  70  84 CALM      30.03S
PINEY ISLAND     N/A    N/A N/A N/A W6        30.02R
WILMINGTON     SUNNY     77  72  84 NW3       30.04S


$$

NCZ011>013-027>030-043-044-078>080-089-090>093-098-211400-
COASTAL PLAIN

CITY           SKY/WX    TMP DP  RH WIND       PRES   REMARKS
AHOSKIE          N/A     71  69  93 N3        30.04R
CLINTON        SUNNY     72  68  89 CALM      30.04S
ELIZABETHTOWN  NOT AVBL
GOLDSBORO      SUNNY     73  73 100 CALM      30.02S
GREENVILLE     CLOUDY    72  70  94 CALM      30.04S
HAVELOCK       SUNNY     78  68  71 NW5       30.03S
KENANSVILLE    SUNNY     73  66  78 W3        30.04S
KINSTON        SUNNY     73  68  83 CALM      30.04S
NEW BERN       SUNNY     77  69  76 NW3       30.04S
RICHLANDS      SUNNY     74  69  85 CALM      30.04S
ROCKY MOUNT    SUNNY     73  70  90 CALM      30.04S
WASHINGTON     CLOUDY    75  70  85 N3        30.03S
WHITEVILLE     SUNNY     74  71  91 CALM      30.04S

$$

AMZ130-135-150-152-154-156-158-170-250-252-270-ANZ085-086-088-633-658-670-211400-
MARINE OBSERVATIONS

STATION/POSITION TIME  TEMP    WIND        PRES    WAVE   SWELL
                       AIR SEA DIR/SP/G            HT/PER HT/PER
                 (UTC) (F)     (DEG/KT/KT) (MB)    (FT/S) (FT/S)
CHESAPEAKE LIGHT NOT AVBL
64 E VA BEACH    1250   70 69  310/  4/  6 1016.5    8/11   7/11
DUCK             1248   74 75  310/  6/  8 1016.2
2 E DUCK         1230      75                N/A     4/10   2/13
OREGON INLET     1236   75 76  290/  6/  8 1016.3
13E OREGON INLT  1248      74                N/A     5/11   5/11
HATTERAS CG      1248   76 77  340/  6/  7 1016.5
DIAMOND BUOY     1250   75 75  320/  4/  4 1016.2    4/10   3/10
CAPE LOOKOUT     1300   78     290/  5/  7 1016.6
BEAUFORT LAB     1248   77 74  310/  3/  5 1016.2
30 SE NEW RVR IN NOT AVBL
30 SE NEW RVR IN NOT AVBL
27 SE WRIGHTSVLE NOT AVBL
5 SE WRIGHTSVLE  1208   76 78  270/  8/ 12 1016.7
225 S CAPE HAT   1250   78 79   10/  2/  4 1017.1    6/10   5/10
41 SE CHARLESTON 1250   79 81  320/  6/  8 1017.0    3/11   3/11

$$




USA.gov is the U.S. government's official web portal to all federal, state and local government web resources and services.